Content
SEND FEEDBACK

Daily
Averages
Monthly
Summary
United States of America

PYGA BEACH, GUAM


Home > North America > United States > Guam
Elevation: 20 feet     Latitude: 13 17N     Longitude: 144 39E

WEATHER
 
SELECT A DAY
Number of Records: 354,252;   Date Range: 1/1/95 - 11/21/14
 
SHARE

PRINT THIS DATA

[ ← Previous Day ]
WEATHER ALMANAC - APRIL 27, 2013
[ Next Day → ]
[ °C ]   °F
Weather ElementAverageHighLow
Temperature81.4 °F86 °F (10:53 am)78.1 °F (1:55 am)
Dewpoint74.2 °F75.6 °F (11:55 am)72.7 °F (7:55 pm)
Humidity79 %89 % (12:15 am)66 % (2:27 pm)
Barometer29.84 in30.12 in (1:21 pm)29.53 in (1:18 pm)
Wind Speed11.6 mph15 mph (12:41 pm)
Wind Gust20.7 mph (12:41 pm)
Weather ElementAverage
Visibility10 mi
Wind DirectionENE (82.7 °)

Weather ElementTotal
Precipitation---
Cooling Degree Days17.1 (Base 65)
Growing Degree Days32.1 (Base 50)
Averaged from 71 records on April 27, 2013
WEATHER CONDITIONS BREAKOUT
WIND DIRECTION BREAKOUT
WEATHER BY HOUR - APRIL 27, 2013
[ °C ]   °F
Local TimeTemperatureDewpointHumidityBarometerVisibilityWind DirectionWind SpeedGust SpeedPrecipitationEventsConditions
12:15 AM78.8 °F75.2 °F89 %29.86 in10.0 miEast (80°)10.4 mphMostly Cloudy
12:17 AM78.8 °F75.2 °F89 %29.86 in10.0 miEast (80°)9.2 mphMostly Cloudy
12:20 AM78.8 °F75.2 °F89 %29.86 in10.0 miEast (90°)10.4 mphMostly Cloudy
12:27 AM78.8 °F75.2 °F89 %29.86 in10.0 miEast (90°)10.4 mphMostly Cloudy
12:30 AM78.8 °F75.2 °F89 %29.86 in10.0 miEast (90°)10.4 mphScattered Clouds
12:55 AM78.3 °F74.5 °F88 %29.85 in10.0 miEast (90°)9.2 mphScattered Clouds
1:04 AM78.8 °F75.2 °F89 %29.85 in10.0 miEast (80°)11.5 mphMostly Cloudy
1:15 AM78.8 °F73.4 °F83 %29.85 in10.0 miEast (90°)11.5 mphScattered Clouds
1:55 AM78.1 °F73.8 °F86 %29.84 in10.0 miEast (90°)9.2 mphPartly Cloudy
2:55 AM78.3 °F73.9 °F87 %29.83 in10.0 miEast (100°)6.9 mphPartly Cloudy
3:03 AM78.8 °F75.2 °F89 %29.84 in10.0 miEast (90°)8.1 mphMostly Cloudy
3:04 AM78.8 °F75.2 °F89 %29.83 in10.0 miEast (90°)9.2 mphMostly Cloudy
3:33 AM78.8 °F75.2 °F89 %29.83 in10.0 miEast (100°)11.5 mphMostly Cloudy
3:40 AM78.8 °F73.4 °F83 %29.83 in10.0 miEast (90°)8.1 mphScattered Clouds
3:42 AM78.8 °F73.4 °F83 %29.83 in10.0 miEast (90°)10.4 mphMostly Cloudy
3:55 AM78.4 °F74.7 °F88 %29.83 in10.0 miEast (90°)10.4 mphMostly Cloudy
3:56 AM78.8 °F75.2 °F89 %29.83 in10.0 miEast (90°)11.5 mphScattered Clouds
4:12 AM78.8 °F73.4 °F83 %29.84 in10.0 miEast (100°)10.4 mphMostly Cloudy
4:14 AM78.8 °F73.4 °F83 %29.84 in10.0 miEast (90°)11.5 mphScattered Clouds
4:55 AM78.4 °F73.6 °F85 %29.85 in10.0 miEast (100°)11.5 mphScattered Clouds
5:55 AM78.3 °F73.8 °F86 %29.86 in10.0 miEast (90°)9.2 mphScattered Clouds
5:57 AM78.8 °F73.4 °F83 %29.86 in10.0 miEast (100°)9.2 mphMostly Cloudy
6:06 AM78.8 °F73.4 °F83 %29.86 in10.0 miEast (90°)10.4 mphScattered Clouds
6:55 AM79.5 °F74.5 °F84 %29.87 in10.0 miEast (90°)9.2 mphPartly Cloudy
7:55 AM81.3 °F74.3 °F79 %29.88 in10.0 miEast (80°)11.5 mphClear
8:55 AM83.5 °F75.2 °F76 %29.88 in10.0 miEast (90°)11.5 mphPartly Cloudy
9:55 AM83.7 °F75.2 °F76 %29.88 in10.0 miENE (70°)12.7 mph19.6 mphMostly Cloudy
10:43 AM84.2 °F75.2 °F74 %29.87 in10.0 miENE (60°)13.8 mphScattered Clouds
10:47 AM84.2 °F75.2 °F74 %29.87 in10.0 miENE (70°)13.8 mphMostly Cloudy
10:53 AM86.0 °F75.2 °F70 %29.87 in10.0 miEast (80°)12.7 mphScattered Clouds
10:55 AM85.5 °F75.2 °F71 %29.87 in10.0 miENE (70°)13.8 mphScattered Clouds
11:55 AM85.8 °F75.6 °F71 %29.86 in10.0 miEast (80°)13.8 mphScattered Clouds
12:41 PM86.0 °F75.2 °F70 %29.84 in10.0 miENE (60°)15.0 mph20.7 mphMostly Cloudy
12:55 PM86.0 °F75.2 °F70 %29.84 in10.0 miENE (70°)13.8 mphMostly Cloudy
1:01 PM86.0 °F75.2 °F70 %29.87 in10.0 miENE (70°)13.8 mphMostly Cloudy
1:05 PM86.0 °F75.2 °F70 %29.83 in10.0 miENE (70°)15.0 mphMostly Cloudy
1:08 PM86.0 °F75.2 °F70 %29.83 in10.0 miENE (70°)15.0 mphMostly Cloudy
1:18 PM86.0 °F75.2 °F70 %29.53 in10.0 miENE (70°)13.8 mphScattered Clouds
1:19 PM86.0 °F75.2 °F70 %29.83 in10.0 miENE (70°)12.7 mphScattered Clouds
1:21 PM86.0 °F75.2 °F70 %30.12 in10.0 miEast (80°)13.8 mphScattered Clouds
1:22 PM86.0 °F75.2 °F70 %29.82 in10.0 miEast (80°)12.7 mphScattered Clouds
1:23 PM86.0 °F75.2 °F70 %29.82 in10.0 miEast (80°)11.5 mphScattered Clouds
1:55 PM85.5 °F75.0 °F71 %29.81 in10.0 miENE (70°)12.7 mphScattered Clouds
2:05 PM86.0 °F75.2 °F70 %29.81 in10.0 miEast (100°)12.7 mphMostly Cloudy
2:27 PM86.0 °F73.4 °F66 %29.81 in10.0 miEast (80°)15.0 mphScattered Clouds
2:55 PM85.3 °F74.1 °F69 %29.80 in10.0 miEast (90°)13.8 mphClear
3:55 PM84.4 °F73.0 °F69 %29.80 in10.0 miENE (70°)12.7 mphPartly Cloudy
4:27 PM82.4 °F73.4 °F74 %29.80 in10.0 miENE (70°)12.7 mphMostly Cloudy
4:29 PM82.4 °F73.4 °F74 %29.80 in10.0 miENE (60°)12.7 mphScattered Clouds
4:32 PM82.4 °F73.4 °F74 %29.80 in10.0 miEast (80°)13.8 mphMostly Cloudy
4:35 PM82.4 °F73.4 °F74 %29.80 in10.0 miEast (80°)11.5 mphScattered Clouds
4:50 PM82.4 °F73.4 °F74 %29.80 in10.0 miENE (70°)11.5 mphMostly Cloudy
4:52 PM82.4 °F73.4 °F74 %29.80 in10.0 miENE (70°)12.7 mphScattered Clouds
4:55 PM82.2 °F73.2 °F74 %29.80 in10.0 miENE (60°)12.7 mphScattered Clouds
5:55 PM80.6 °F72.9 °F77 %29.82 in10.0 miENE (70°)11.5 mphPartly Cloudy
6:53 PM80.6 °F73.4 °F79 %29.83 in10.0 miENE (60°)12.7 mphMostly Cloudy
6:55 PM80.1 °F73.2 °F80 %29.83 in10.0 miENE (60°)12.7 mphMostly Cloudy
7:19 PM80.6 °F73.4 °F79 %29.84 in10.0 miEast (80°)12.7 mphMostly Cloudy
7:55 PM79.2 °F72.7 °F80 %29.84 in10.0 miEast (80°)10.4 mphClear
8:55 PM79.2 °F73.0 °F81 %29.87 in10.0 miEast (80°)12.7 mphPartly Cloudy
9:04 PM78.8 °F73.4 °F83 %29.87 in10.0 miEast (80°)9.2 mphMostly Cloudy
9:18 PM80.6 °F73.4 °F79 %29.87 in10.0 miEast (90°)10.4 mphMostly Cloudy
9:22 PM78.8 °F73.4 °F83 %29.87 in10.0 miEast (100°)10.4 mphMostly Cloudy
9:25 PM78.8 °F73.4 °F83 %29.87 in10.0 miEast (90°)10.4 mphMostly Cloudy
9:55 PM79.7 °F73.2 °F80 %29.88 in10.0 miEast (100°)10.4 mphPartly Cloudy
10:30 PM78.8 °F73.4 °F83 %29.89 in10.0 miEast (100°)11.5 mphMostly Cloudy
10:32 PM78.8 °F73.4 °F83 %29.89 in10.0 miEast (100°)12.7 mphScattered Clouds
10:36 PM78.8 °F73.4 °F83 %29.89 in10.0 miEast (100°)11.5 mphMostly Cloudy
10:55 PM79.5 °F74.1 °F83 %29.89 in10.0 miEast (90°)10.4 mphMostly Cloudy
10:57 PM78.8 °F73.4 °F83 %29.89 in10.0 miEast (90°)10.4 mphScattered Clouds
11:55 PM79.2 °F73.8 °F83 %29.88 in10.0 miEast (100°)10.4 mphScattered Clouds
Hourly data recorded from PGUA, located miles away from Pyga Beach, Guam







STORIES FROM OUR PARTNERS